Wallops Island, VA

1:00 AM EST on December 10, 2019 (GMT -0500)
Wallops Flight Facility

Weather History for KWAL - October, 2019

Change the Weather History Date:

Wednesday, October 2, 2019

  Actual Average Record
Temperature  
Mean Temperature 82 °F 64 °F  
Max Temperature 93 °F 73 °F 93 °F (2019)
Min Temperature 70 °F 55 °F 41 °F (1997)
Degree Days  
Heating Degree Days 0    
Month to date heating degree days 0  
Since 1 July heating degree days 9  
Cooling Degree Days 17    
Month to date cooling degree days 23  
Year to date cooling degree days 1770  
Growing Degree Days 32 (Base 50)    
Moisture  
Dew Point 68 °F    
Average Humidity 67    
Maximum Humidity 90    
Minimum Humidity 44    
Precipitation  
Precipitation 0.00 in 0.10 in 0.60 in (2015)
Month to date precipitation 0.00 0.20  
Year to date precipitation 34.33 31.57  
Sea Level Pressure  
Sea Level Pressure 29.91 in    
Wind  
Wind Speed 7 mph (SW)    
Max Wind Speed 14 mph    
Max Gust Speed 19 mph    
Visibility 10 miles    
Events      
T = Trace of Precipitation, MM = Missing Value Source: NWS Daily Summary

Daily Weather History Graph

Daily Weather History Graph

Search for Another Location

Airport or City:

Astronomy

Oct. 02, 2019 Rise Set
Actual Time 6:58 AM EDT 6:43 PM EDT
Civil Twilight 6:31 AM EDT 7:09 PM EDT
Nautical Twilight 6:01 AM EDT 7:40 PM EDT
Astronomical Twilight 5:30 AM EDT 8:11 PM EDT
Moon 11:17 AM EDT (10/2) 9:40 PM EDT (10/2)
Length of Visible Light 12h 37m
Length of Day
11h 45m
Waxing Crescent, 20% of the Moon is Illuminated
Oct 2
Waxing Crescent
Oct 5
First Quarter
Oct 13
Full
Oct 21
Last Quarter
Oct 27
New

Hourly Weather History & Observations

Time (EDT) Temp. Heat Index Dew Point Humidity Pressure Visibility Wind Dir Wind Speed Gust Speed Precip Events Conditions
12:54 AM 71.1 °F - 63.0 °F 75% 29.99 in 10.0 mi SSW 10.4 mph - N/A   Clear
1:54 AM 71.1 °F - 64.9 °F 81% 29.98 in 10.0 mi SSW 8.1 mph - N/A   Clear
2:54 AM 71.1 °F - 66.0 °F 84% 29.95 in 10.0 mi SW 9.2 mph - N/A   Clear
3:54 AM 71.1 °F - 64.9 °F 81% 29.94 in 10.0 mi SW 6.9 mph - N/A   Clear
4:54 AM 71.1 °F - 64.9 °F 81% 29.94 in 10.0 mi WSW 8.1 mph - N/A   Clear
5:54 AM 70.0 °F - 66.0 °F 87% 29.95 in 10.0 mi SW 5.8 mph - N/A   Clear
6:54 AM 71.1 °F - 66.9 °F 87% 29.95 in 10.0 mi SW 6.9 mph - N/A   Clear
7:54 AM 73.9 °F - 68.0 °F 82% 29.96 in 10.0 mi WSW 8.1 mph - N/A   Partly Cloudy
8:54 AM 77.0 °F - 68.0 °F 74% 29.96 in 10.0 mi SW 9.2 mph - N/A   Scattered Clouds
9:54 AM 81.0 °F 84.1 °F 69.1 °F 67% 29.95 in 10.0 mi WSW 9.2 mph - N/A   Scattered Clouds
10:54 AM 82.0 °F 85.9 °F 70.0 °F 67% 29.93 in 10.0 mi WSW 12.7 mph - N/A   Partly Cloudy
11:54 AM 86.0 °F 91.5 °F 71.1 °F 61% 29.92 in 10.0 mi West 5.8 mph - N/A   Partly Cloudy
12:54 PM 88.0 °F 92.9 °F 70.0 °F 55% 29.90 in 10.0 mi West 9.2 mph - N/A   Clear
1:54 PM 89.1 °F 94.1 °F 70.0 °F 53% 29.88 in 10.0 mi Variable 5.8 mph - N/A   Scattered Clouds
2:54 PM 91.0 °F 95.6 °F 69.1 °F 48% 29.86 in 10.0 mi WSW 8.1 mph - N/A   Clear
3:54 PM 91.9 °F 95.9 °F 68.0 °F 45% 29.85 in 10.0 mi WSW 10.4 mph - N/A   Clear
4:54 PM 91.0 °F 93.8 °F 66.0 °F 44% 29.84 in 10.0 mi West 4.6 mph - N/A   Clear
5:54 PM 82.9 °F 88.8 °F 73.0 °F 72% 29.84 in 9.0 mi SSW 6.9 mph - N/A   Clear
6:54 PM 80.1 °F 84.2 °F 73.0 °F 79% 29.85 in 8.0 mi SSW 5.8 mph - N/A   Clear
7:54 PM 81.0 °F 84.9 °F 71.1 °F 72% 29.86 in 10.0 mi SW 4.6 mph - N/A   Clear
8:54 PM 79.0 °F - 71.1 °F 77% 29.87 in 10.0 mi SSW 8.1 mph - N/A   Clear
9:54 PM 79.0 °F - 70.0 °F 74% 29.88 in 10.0 mi SSW 5.8 mph - N/A   Clear
10:54 PM 77.0 °F - 69.1 °F 76% 29.89 in 10.0 mi SSW 3.5 mph - N/A   Clear
11:54 PM 79.0 °F - 70.0 °F 74% 29.89 in 10.0 mi West 4.6 mph - N/A   Clear